Location: Black Swamp Observatory
(41.3920°N, 84.1250°W)
Time: 17:53:42
(UTC-05:00)

ISS - Pass Details

Date: 01 December 2021
Orbit: 413 x 422 km, 51.6° (Epoch: 20 January)

Event Time Altitude Azimuth Distance (km) Brightness Sun altitude
Rises 18:44:05 0° 309° (NW) 2,385 0.6 -17.6°
Reaches altitude 10° 18:46:34 10° 326° (NW) 1,515 -0.7 -18.1°
Enters shadow 18:48:33 20° 0° (N) 1,061 -1.9 -18.4°
